Change the Weather History Date:

Tuesday, December 24, 2013

  Actual Average Record
Temperature  
Mean Temperature 75 °F 70 °F  
Max Temperature 81 °F 76 °F 84 °F (2014)
Min Temperature 69 °F 65 °F 56 °F (2010)
Degree Days  
Heating Degree Days 0 1  
Month to date heating degree days 0 17  
Since 1 July heating degree days 1 18  
Cooling Degree Days 10 6  
Month to date cooling degree days 292 187  
Year to date cooling degree days 5548 4951  
Growing Degree Days 25 (Base 50)    
Moisture  
Dew Point 69 °F    
Average Humidity 86    
Maximum Humidity 97    
Minimum Humidity 74    
Precipitation  
Precipitation 0.00 in 0.06 in 0.16 in (2003)
Month to date precipitation 2.17 1.62  
Year to date precipitation 51.74 45.77  
Snow  
Snow 0.00 in - - ()
Month to date snowfall 0.0  
Since 1 July snowfall 0.0  
Snow Depth 0.00 in    
Sea Level Pressure  
Sea Level Pressure 30.12 in    
Wind  
Wind Speed 7 mph (North)    
Max Wind Speed 20 mph    
Max Gust Speed 28 mph    
Visibility 10 miles    
Events      
T = Trace of Precipitation, MM = Missing Value Source: NWS Daily Summary

Daily Weather History Graph

Daily Weather History Graph

Search for Another Location

Airport or City:

Trip Planner

Search our weather history database for the weather conditions in past years. The results will help you decide how hot, cold, wet, or windy it might be!

Date:

Astronomy

Dec. 24, 2013 Rise Set
Actual Time 7:05 AM EST 5:42 PM EST
Civil Twilight 6:40 AM EST 6:07 PM EST
Nautical Twilight 6:12 AM EST 6:35 PM EST
Astronomical Twilight 5:44 AM EST 7:03 PM EST
Moon No Moon Rise 11:38 AM EST (12/24)
Length of Visible Light 11h 26m
Length of Day
10h 36m
Waning Gibbous, 59% of the Moon is Illuminated
Dec 24
Waning Gibbous
Dec 25
Last Quarter
Jan 1
New
Jan 7
First Quarter
Jan 15
Full

Hourly Weather History & Observations

Time (EST) Temp. Heat Index Dew Point Humidity Pressure Visibility Wind Dir Wind Speed Gust Speed Precip Events Conditions
12:53 AM 77.0 °F - 71.1 °F 82% 30.14 in 10.0 mi SE 3.5 mph - N/A   Clear
1:53 AM 73.9 °F - 69.1 °F 85% 30.14 in 10.0 mi Calm Calm - N/A   Partly Cloudy
2:53 AM 73.9 °F - 70.0 °F 87% 30.12 in 10.0 mi Calm Calm - N/A   Clear
3:53 AM 72.0 °F - 69.1 °F 91% 30.13 in 10.0 mi Calm Calm - N/A   Clear
4:53 AM 71.1 °F - 68.0 °F 90% 30.12 in 10.0 mi Calm Calm - N/A   Clear
5:53 AM 70.0 °F - 68.0 °F 93% 30.13 in 10.0 mi Calm Calm - N/A   Clear
6:53 AM 71.1 °F - 68.0 °F 90% 30.15 in 10.0 mi Calm Calm - N/A   Clear
7:53 AM 75.0 °F - 72.0 °F 90% 30.17 in 10.0 mi North 3.5 mph - N/A   Clear
8:53 AM 78.1 °F - 73.9 °F 87% 30.18 in 10.0 mi NNE 4.6 mph - N/A   Clear
9:53 AM 79.0 °F - 72.0 °F 79% 30.17 in 10.0 mi NNE 4.6 mph - N/A   Partly Cloudy
10:53 AM 79.0 °F - 73.0 °F 82% 30.17 in 10.0 mi North 5.8 mph - N/A   Clear
11:53 AM 80.1 °F 83.8 °F 72.0 °F 76% 30.14 in 10.0 mi NNW 5.8 mph - N/A   Clear
12:53 PM 80.1 °F 83.8 °F 72.0 °F 76% 30.12 in 10.0 mi NNW 12.7 mph - N/A   Partly Cloudy
1:53 PM 77.0 °F - 71.1 °F 82% 30.09 in 10.0 mi NNW 12.7 mph - N/A   Partly Cloudy
2:53 PM 75.9 °F - 71.1 °F 85% 30.08 in 10.0 mi NNW 10.4 mph - N/A   Clear
3:53 PM 77.0 °F - 71.1 °F 82% 30.07 in 10.0 mi NNW 9.2 mph - N/A   Clear
4:53 PM 77.0 °F - 70.0 °F 79% 30.07 in 10.0 mi NNW 9.2 mph - N/A   Clear
5:53 PM 75.0 °F - 71.1 °F 87% 30.08 in 10.0 mi NNW 11.5 mph - N/A   Scattered Clouds
6:00 PM 75.0 °F - 71.1 °F 87% 30.09 in 10.0 mi NNW 10.4 mph - N/A   Mostly Cloudy
6:43 PM 75.0 °F - 70.0 °F 84% 30.10 in 10.0 mi North 11.5 mph 21.9 mph N/A   Mostly Cloudy
6:53 PM 73.9 °F - 69.1 °F 85% 30.10 in 10.0 mi NNE 15.0 mph 24.2 mph N/A   Mostly Cloudy
7:53 PM 73.0 °F - 68.0 °F 84% 30.12 in 10.0 mi NNE 12.7 mph 26.5 mph N/A   Mostly Cloudy
8:53 PM 72.0 °F - 68.0 °F 87% 30.12 in 10.0 mi NNE 15.0 mph 24.2 mph N/A   Mostly Cloudy
9:01 PM 72.0 °F - 68.0 °F 87% 30.12 in 10.0 mi NNE 17.3 mph 26.5 mph N/A   Mostly Cloudy
9:32 PM 71.1 °F - 66.9 °F 87% 30.12 in 10.0 mi NNE 16.1 mph - N/A   Mostly Cloudy
9:53 PM 71.1 °F - 66.9 °F 87% 30.13 in 10.0 mi NNE 15.0 mph - N/A   Mostly Cloudy
10:00 PM 71.1 °F - 66.9 °F 87% 30.13 in 10.0 mi NNE 15.0 mph - N/A   Overcast
10:28 PM 70.0 °F - 64.9 °F 84% 30.13 in 10.0 mi NNE 16.1 mph 23.0 mph N/A   Scattered Clouds
10:53 PM 70.0 °F - 64.9 °F 84% 30.12 in 10.0 mi NNE 12.7 mph - N/A   Partly Cloudy
11:53 PM 70.0 °F - 64.0 °F 81% 30.12 in 10.0 mi NE 15.0 mph - N/A   Clear